Powrót do katalogu

YAOGAN-30 L

AktywnyMilitariaVLEO
NORAD 43171·PAYLOAD·🇨🇳 China

Wystrzelony Jan 25, 2018 z Xichang Satellite Launch Center

Loading…

Następne Przeloty (najbliższe 24 godziny)

TLE

ŚwieżeSource: Space-Track

Epoka: Sep 14, 2026, 15:34 UTC

1 43171U 18011C   26257.64902368  .00001972  00000-0  14575-3 0  9991
2 43171  34.9962 325.3033 0001297  27.4964 332.5813 15.03003690471689

Śledź YAOGAN-30 L w czasie rzeczywistym z AllMySat

Download on the App Store